EDT,Max TemperatureF,Mean TemperatureF,Min TemperatureF,Max Dew PointF,MeanDew PointF,Min DewpointF,Max Humidity, Mean Humidity, Min Humidity, Max Sea Level PressureIn, Mean Sea Level PressureIn, Min Sea Level PressureIn, Max VisibilityMiles, Mean VisibilityMiles, Min VisibilityMiles, Max Wind SpeedMPH, Mean Wind SpeedMPH, Max Gust SpeedMPH,PrecipitationIn, CloudCover, Events, WindDirDegrees
2013-5-1,73,66,60,61,59,56,94,80,59,30.18,30.12,30.06,10,9,4,17,9,22,0.01,6,,53
2013-5-2,73,68,64,63,61,57,87,77,66,30.14,30.12,30.08,10,9,2,16,11,29,0.01,8,Rain,73
2013-5-3,71,66,60,60,57,52,84,76,64,30.09,30.03,29.99,10,10,5,17,12,28,0.02,7,,71
2013-5-4,69,63,57,61,57,53,89,82,68,29.98,29.92,29.87,,,,16,13,28,0.10,8,Rain,79
2013-5-5,73,66,59,68,62,57,100,87,66,29.88,29.81,29.77,10,10,10,22,10,29,1.21,7,Rain-Thunderstorm,130
2013-5-6,72,63,55,57,50,44,100,68,38,29.96,29.89,29.84,10,10,10,13,4,18,0.01,3,,277
2013-5-7,72,63,55,58,53,48,87,72,44,30.00,29.95,29.91,10,9,2,12,3,16,0.13,4,Rain,255
2013-5-8,81,66,52,61,53,48,89,64,38,30.07,30.03,29.98,10,10,10,14,6,22,0.00,2,,241
2013-5-9,86,72,60,62,58,55,90,63,38,30.12,30.08,30.04,10,10,10,14,6,18,0.00,2,,240
2013-5-10,87,74,63,66,61,57,81,64,40,30.12,30.07,30.02,10,10,10,12,5,21,0.00,2,,190
2013-5-11,84,76,69,69,64,59,90,69,44,30.04,29.96,29.90,10,10,10,15,7,20,0.00,1,,229
2013-5-12,82,75,68,64,56,42,87,56,31,30.03,29.94,29.88,10,10,10,16,10,24,0.00,2,,287
2013-5-13,75,65,55,49,41,34,77,44,22,30.17,30.10,30.03,10,10,10,14,9,20,0.00,1,,346
2013-5-14,75,63,51,53,45,40,72,50,33,30.27,30.21,30.16,10,10,10,9,5,,0.00,0,,79
2013-5-15,88,74,61,61,55,50,80,56,36,30.20,30.12,30.04,10,10,10,14,8,20,0.00,0,,224
2013-5-16,82,73,64,66,59,53,87,61,46,30.11,30.06,30.03,10,10,10,12,8,,0.00,4,,240
2013-5-17,87,76,64,67,64,61,90,70,47,30.13,30.09,30.06,10,10,6,8,4,,0.00,2,,196
2013-5-18,84,72,63,70,65,62,97,80,56,30.15,30.11,30.07,10,8,0,12,3,17,0.12,2,Fog-Rain-Thunderstorm,199
2013-5-19,82,76,72,71,70,67,91,83,66,30.13,30.09,30.06,10,10,6,8,3,17,0.02,4,Rain,175
2013-5-20,84,78,73,72,70,66,93,80,60,30.12,30.08,30.05,10,10,4,13,4,17,0.04,4,Rain-Thunderstorm,196
2013-5-21,82,76,69,71,70,66,93,81,67,30.09,30.04,30.00,10,10,7,9,3,,0.00,5,Thunderstorm,180
2013-5-22,86,74,64,70,66,63,96,77,51,30.03,30.00,29.94,10,9,0,7,2,,0.00,3,Fog,172
2013-5-23,89,79,70,70,66,59,91,69,40,29.97,29.94,29.87,10,10,10,14,6,20,0.00,5,,281
2013-5-24,86,78,66,62,53,41,71,46,25,30.17,30.00,29.91,10,10,10,16,10,25,0.00,0,,330
2013-5-25,79,68,57,53,44,35,70,44,27,30.32,30.23,30.17,10,10,10,12,7,18,0.00,0,,34
2013-5-26,84,70,55,60,55,50,93,60,33,30.28,30.21,30.17,10,10,10,10,4,,0.00,0,,223
2013-5-27,84,72,61,64,61,59,97,76,46,30.25,30.22,30.18,10,7,0,9,1,,0.00,0,Fog,162
2013-5-28,84,74,66,67,64,62,90,68,49,30.26,30.22,30.19,10,10,10,10,3,18,0.00,3,,160
2013-5-29,82,76,69,67,65,63,87,70,52,30.26,30.21,30.17,10,10,10,12,5,,0.00,3,,135
2013-5-30,87,76,66,72,68,65,93,77,55,30.26,30.21,30.18,10,8,0,10,5,,0.00,5,Fog,116
2013-5-31,87,80,73,71,70,67,91,75,55,30.22,30.18,30.15,10,10,10,9,5,,0.00,3,,155